This is the latest recevied weather packets stored in our database for station/object PA3CPS. If no packets are shown the sender has not sent any weather packets the latest 1 day(s).
| Time | Temp. | Humidity | Pressure | Rain* | Wind** | Luminosity | Snow |
|---|---|---|---|---|---|---|---|
| 1836274618 | 16.67° C | 81% | 1013.8 hPa | 0 mm | 0.89 m/s, 111° | 0 W/m² | - |
| 1836274469 | 16.67° C | 82% | 1013.7 hPa | 0 mm | 0.45 m/s, 131° | 0 W/m² | - |
| 1836274317 | 16.67° C | 81% | 1013.8 hPa | 0 mm | 0.45 m/s, 156° | 0 W/m² | - |
| 1836274167 | 16.67° C | 82% | 1013.8 hPa | 0 mm | 0.89 m/s, 141° | 0 W/m² | - |
| 1836274018 | 16.67° C | 81% | 1014 hPa | 0 mm | 0.89 m/s, 116° | 0 W/m² | - |
| 1778031125 | 9.44° C | 86% | 1007.9 hPa | 0 mm | 1.34 m/s, 2° | 0 W/m² | - |
| 1778030822 | 9.44° C | 86% | 1007.9 hPa | 0 mm | 1.79 m/s, 357° | 0 W/m² | - |
| 1778030524 | 9.44° C | 86% | 1007.9 hPa | 0 mm | 1.34 m/s, 0° | 0 W/m² | - |
| 1778030222 | 9.44° C | 86% | 1008 hPa | 0 mm | 1.34 m/s, 22° | 0 W/m² | - |
| 1778029923 | 9.44° C | 86% | 1007.9 hPa | 0 mm | 1.79 m/s, 10° | 0 W/m² | - |
| 1778029622 | 9.44° C | 85% | 1008.1 hPa | 0 mm | 0.89 m/s, 310° | 0 W/m² | - |
| 1778029322 | 9.44° C | 85% | 1008.1 hPa | 0 mm | 1.79 m/s, 6° | 0 W/m² | - |
| 1778029022 | 9.44° C | 85% | 1008.2 hPa | 0 mm | 1.34 m/s, 340° | 0 W/m² | - |
| 1778028723 | 9.44° C | 85% | 1008.2 hPa | 0 mm | 1.79 m/s, 10° | 0 W/m² | - |
| 1778028422 | 9.44° C | 85% | 1008.2 hPa | 0 mm | 2.68 m/s, 331° | 0 W/m² | - |
| 1778028122 | 9.44° C | 85% | 1008.3 hPa | 0 mm | 1.79 m/s, 335° | 0 W/m² | - |
| 1778027822 | 9.44° C | 85% | 1008.2 hPa | 0 mm | 1.79 m/s, 358° | 0 W/m² | - |
| 1778027520 | 9.44° C | 85% | 1008.3 hPa | 0 mm | 1.79 m/s, 351° | 0 W/m² | - |
| 1778027217 | 9.44° C | 84% | 1008.3 hPa | 0 mm | 1.34 m/s, 345° | 0 W/m² | - |
| 1778026915 | 9.44° C | 84% | 1008.3 hPa | 0 mm | 2.68 m/s, 356° | 0 W/m² | - |
| 1778026614 | 9.44° C | 84% | 1008.3 hPa | 0 mm | 2.24 m/s, 353° | 0 W/m² | - |
| 1778026313 | 9.44° C | 84% | 1008.3 hPa | 0 mm | 2.68 m/s, 349° | 0 W/m² | - |
| 1778026012 | 9.44° C | 84% | 1008.4 hPa | 0 mm | 1.79 m/s, 18° | 0 W/m² | - |
| 1778025710 | 9.44° C | 84% | 1008.5 hPa | 0 mm | 2.24 m/s, 310° | 0 W/m² | - |
| 1778025410 | 9.44° C | 84% | 1008.5 hPa | 0 mm | 3.58 m/s, 2° | 0 W/m² | - |
* Rain latest hour (hover to see other rain measurements)
** Current wind speed in m/s (hover to see current wind gust speed)